Weather History for Flint, MI

Change the Weather History Date:

Sunday, January 26, 2014

  Actual Average Record
Temperature  
Mean Temperature 13 °F 22 °F  
Max Temperature 24 °F 30 °F 63 °F (1944)
Min Temperature 1 °F 15 °F -16 °F (1959)
Degree Days  
Heating Degree Days 52 43  
Month to date heating degree days 1261 1107  
Since 1 July heating degree days 3891 3752  
Cooling Degree Days 0 0  
Month to date cooling degree days 0 0  
Year to date cooling degree days 0 0  
Moisture  
Dew Point 6 °F    
Average Humidity 74    
Maximum Humidity 86    
Minimum Humidity 62    
Precipitation  
Precipitation 0.13 in 0.04 in 1.16 in (1967)
Month to date precipitation 2.51 1.39  
Year to date precipitation 2.51 1.39  
Snow  
Snow 2.70 in 0.40 in 14.50 in ()
Month to date snowfall 32.2 11.1  
Since 1 July snowfall 50.7 25.8  
Snow Depth 6.00 in    
Sea Level Pressure  
Sea Level Pressure 29.52 in    
Wind  
Wind Speed 12 mph (SW)    
Max Wind Speed 23 mph    
Max Gust Speed 23 mph    
Visibility 4 miles    
Events Snow    
T = Trace of Precipitation, MM = Missing Value Source: NWS Daily Summary

Daily Weather History Graph

Daily Weather History Graph

Search for Another Location

Airport:

Trip Planner

Search our weather history database for the weather conditions in past years. The results will help you decide how hot, cold, wet, or windy it might be!

Date:

Astronomy

Jan. 26, 2014 Rise Set
Actual Time 7:55 AM EST 5:39 PM EST
Civil Twilight 7:25 AM EST 6:10 PM EST
Nautical Twilight 6:50 AM EST 6:44 PM EST
Astronomical Twilight 6:17 AM EST 7:18 PM EST
Moon 3:32 AM EST (1/26) 1:27 PM EST (1/26)
Length of Visible Light 10h 45m
Length of Day
9h 44m
Waning Crescent, 24% of the Moon is Illuminated
Jan 26
Waning Crescent
Jan 30
New
Feb 6
First Quarter
Feb 14
Full
Feb 22
Last Quarter

Hourly Weather History & Observations

Time (EST) Temp. Windchill Dew Point Humidity Pressure Visibility Wind Dir Wind Speed Gust Speed Precip Events Conditions
12:31 AM 1.4 °F - -7.6 °F 66% 29.74 in 8.0 mi North - - N/A   Mostly Cloudy
12:53 AM 3.0 °F - -5.1 °F 69% 29.78 in 10.0 mi North - - N/A   Mostly Cloudy
1:22 AM 1.4 °F - -5.8 °F 72% 29.73 in 10.0 mi North - - N/A   Scattered Clouds
1:53 AM 1.9 °F - -4.0 °F 76% 29.76 in 10.0 mi North - - N/A   Clear
2:53 AM 1.9 °F - -4.0 °F 76% 29.75 in 10.0 mi North - - N/A   Clear
3:53 AM 1.9 °F - -4.0 °F 76% 29.75 in 10.0 mi North - - N/A   Clear
4:53 AM 3.0 °F - -2.0 °F 80% 29.72 in 10.0 mi North - - N/A   Partly Cloudy
5:53 AM 3.9 °F - -0.9 °F 80% 29.73 in 10.0 mi Calm Calm - N/A   Overcast
6:53 AM 5.0 °F - -0.0 °F 80% 29.71 in 10.0 mi North - - N/A   Overcast
7:50 AM 6.8 °F -3.5 °F 1.4 °F 79% 29.63 in 2.0 mi South 5.8 mph - 0.00 in Snow Light Snow
7:53 AM 6.1 °F -4.3 °F 1.0 °F 80% 29.68 in 2.0 mi South 5.8 mph - 0.00 in Snow Light Snow
8:05 AM 6.8 °F - 1.4 °F 79% 29.61 in 1.0 mi North - - 0.00 in Snow Light Snow
8:16 AM 6.8 °F - 1.4 °F 79% 29.60 in 1.0 mi North - - 0.00 in Snow Light Snow
8:53 AM 8.1 °F -7.0 °F 3.0 °F 80% 29.65 in 1.5 mi South 11.5 mph - 0.01 in Snow Light Snow
9:24 AM 8.6 °F -6.3 °F 3.2 °F 79% 29.58 in 0.5 mi South 11.5 mph - 0.00 in Snow Snow
9:38 AM 8.6 °F -6.3 °F 3.2 °F 79% 29.57 in 0.5 mi South 11.5 mph - 0.01 in Snow Snow
9:53 AM 9.0 °F -5.9 °F 3.9 °F 80% 29.62 in 0.5 mi South 11.5 mph - 0.02 in Snow Snow
10:32 AM 10.4 °F -4.1 °F 3.2 °F 73% 29.55 in 0.5 mi South 11.5 mph - 0.01 in Snow Snow
10:53 AM 10.0 °F -4.5 °F 3.9 °F 76% 29.59 in 0.5 mi South 11.5 mph - 0.01 in Snow Snow
11:33 AM 10.4 °F -4.1 °F 3.2 °F 73% 29.50 in 1.8 mi South 11.5 mph - 0.00 in   Haze
11:39 AM 10.4 °F -4.1 °F 3.2 °F 73% 29.50 in 2.5 mi South 11.5 mph - 0.00 in   Haze
11:49 AM 10.4 °F -4.1 °F 3.2 °F 73% 29.50 in 4.0 mi South 11.5 mph - 0.00 in   Haze
11:53 AM 10.9 °F -3.4 °F 3.0 °F 70% 29.55 in 4.0 mi South 11.5 mph - 0.00 in   Haze
12:14 PM 10.4 °F -4.1 °F 3.2 °F 73% 29.46 in 1.8 mi SW 11.5 mph - 0.00 in Snow Snow
12:21 PM 10.4 °F -4.1 °F 3.2 °F 73% 29.46 in 0.5 mi SW 11.5 mph - 0.00 in Snow Snow
12:32 PM 10.4 °F -4.1 °F 5.0 °F 79% 29.44 in 1.5 mi SW 11.5 mph - 0.00 in Snow Light Snow
12:53 PM 12.0 °F -2.0 °F 5.0 °F 73% 29.49 in 3.0 mi SW 11.5 mph - 0.00 in Snow Light Snow
1:04 PM 12.2 °F - 3.2 °F 67% 29.44 in 6.0 mi North - - 0.00 in   Haze
1:53 PM 14.0 °F - 6.1 °F 71% 29.43 in 2.5 mi North - - 0.00 in Snow Light Snow
1:58 PM 14.0 °F - 6.8 °F 73% 29.38 in 3.0 mi North - - 0.00 in Snow Light Snow
2:27 PM 15.8 °F - 6.8 °F 68% 29.39 in 2.5 mi North - - 0.00 in Snow Light Snow
2:42 PM 14.0 °F - 6.8 °F 73% 29.39 in 1.8 mi North - - 0.00 in Snow Light Snow
2:53 PM 15.1 °F - 7.0 °F 70% 29.43 in 2.0 mi North - - 0.00 in Snow Light Snow
3:32 PM 15.8 °F 1.4 °F 6.8 °F 68% 29.37 in 3.0 mi SW 13.8 mph - 0.00 in Snow Light Snow
3:51 PM 15.8 °F 1.4 °F - N/A% 29.36 in 4.0 mi SW 13.8 mph - 0.00 in   Haze
3:53 PM 15.1 °F 0.5 °F - N/A% 29.42 in 4.0 mi SW 13.8 mph - 0.00 in   Haze
4:34 PM 15.8 °F 2.7 °F 8.6 °F 73% 29.38 in 10.0 mi WSW 11.5 mph - N/A   Overcast
4:53 PM 17.1 °F 4.3 °F 9.0 °F 71% 29.44 in 10.0 mi WSW 11.5 mph - N/A   Overcast
5:53 PM 18.0 °F 2.6 °F 10.0 °F 71% 29.41 in 10.0 mi WSW 17.3 mph - N/A   Overcast
6:53 PM 19.9 °F - 12.0 °F 71% 29.43 in 10.0 mi North - - N/A   Overcast
7:53 PM 21.9 °F 10.4 °F 14.0 °F 72% 29.43 in 10.0 mi WSW 11.5 mph - N/A   Mostly Cloudy
8:53 PM 24.1 °F 13.1 °F 17.1 °F 75% 29.44 in 2.5 mi WSW 11.5 mph - N/A Snow Light Snow
9:13 PM 24.8 °F - 19.4 °F 80% 29.39 in 3.0 mi North - - N/A Snow Light Snow
9:43 PM 24.8 °F - 17.6 °F 74% 29.38 in 3.0 mi North - - N/A Snow Light Snow
9:51 PM 24.8 °F - 17.6 °F 74% 29.37 in 2.5 mi North - - N/A Snow Light Snow
9:53 PM 24.1 °F - 17.1 °F 75% 29.41 in 2.5 mi North - - N/A Snow Light Snow
10:00 PM 23.0 °F 9.2 °F 17.6 °F 80% 29.38 in 4.0 mi West 17.3 mph - N/A Snow Light Snow
10:09 PM 23.0 °F 9.2 °F 17.6 °F 80% 29.39 in 2.5 mi West 17.3 mph - N/A Snow Light Snow
10:19 PM 23.0 °F 9.2 °F 17.6 °F 80% 29.39 in 1.0 mi West 17.3 mph - N/A Snow Light Snow
10:53 PM 19.9 °F 3.2 °F 15.1 °F 81% 29.45 in 1.0 mi WNW 23.0 mph - N/A Snow Light Snow
11:01 PM 19.4 °F 2.5 °F 14.0 °F 80% 29.41 in 1.8 mi WNW 23.0 mph - N/A Snow Light Snow
11:53 PM 17.1 °F - 12.0 °F 81% 29.47 in 1.0 mi North - - N/A Snow Light Snow